Home > Weather > Redlands > Past weeks

Flag for USA Past Weather in Redlands, California, USA — Yesterday and Last 2 Weeks

Now
82 °F

Sunny.


Feels Like: 81 °F
Forecast: 62 / 94 °F
Wind: 12 mph from Southwest

Location: Norton Air Force Base / San Bern

Current Time: Aug 27, 2016 at 7:36:36 PM

Latest Report: Aug 27, 2016 at 6:48 PM


Visibility: 4 mi

Pressure: 29.92 "Hg

Humidity: 37%

Dew Point: 54 °F

Location of RedlandsLocation

Past Weather in Redlands — Graph

°F

Redlands Temperature Yesterday

Maximum temperature yesterday: 90 °F (at 3:50 PM)
Minimum temperature yesterday: 55 °F (at 7:00 AM)
Average temperature yesterday: 68 °F

High & Low Weather Summary for the Past Weeks

 TemperatureHumidityPressure
High108 °F (Aug 15, 2:50 PM)88% (Aug 14, 7:47 AM)30.06 "Hg (Aug 14, 7:47 AM)
Low55 °F (Aug 26, 7:00 AM)4% (Aug 16, 1:50 PM)29.81 "Hg (Aug 17, 6:50 PM)
Average78 °F42%29.93 "Hg
* Reported Aug 12 5:47 PM — Aug 27 5:46 PM, Redlands, Weather by CustomWeather, © 2016

Note: Actual official high and low records may vary slightly from our data, if they occured in-between our weather recording intervals... More about our weather records

Advertising

Redlands Weather History for the Previous 24 Hours

Scroll right to see more
 ConditionsComfort  
Time TempWeatherWind HumidityBarometerVisibility
5:46 PM
Sat, Aug 27
86 °FHaze.8 mph29%29.92 "Hg4 mi
4:50 PM88 °FHaze.5 mph27%29.92 "Hg4 mi
3:47 PM84 °FHaze.7 mph31%29.94 "Hg4 mi
2:50 PM84 °FHaze.9 mph33%29.95 "Hg3 mi
1:46 PM81 °FHaze.No wind39%29.98 "Hg3 mi
12:50 PM77 °FHaze.5 mph47%29.99 "Hg3 mi
11:55 AM73 °FHaze.6 mph53%30.01 "Hg3 mi
10:50 AM66 °FPartly sunny.No wind68%30.02 "Hg3 mi
8:50 AM64 °FOvercast.No wind73%30.02 "Hg2 mi
7:47 AM64 °FOvercast.No wind78%30.01 "Hg2 mi
6:54 AM64 °FOvercast.No wind79%30.00 "Hg5 mi
6:34 AM64 °FOvercast.3 mph79%29.99 "Hg5 mi
6:14 AM63 °FOvercast.3 mph79%29.98 "Hg5 mi
5:53 AM64 °FOvercast.3 mph79%29.98 "Hg5 mi
5:34 AM64 °FOvercast.3 mph79%29.97 "Hg5 mi
5:14 AM63 °FOvercast.5 mph79%29.97 "Hg7 mi
4:53 AM63 °FOvercast.6 mph80%29.97 "Hg7 mi
4:34 AM63 °FOvercast.6 mph80%29.96 "Hg7 mi
4:14 AM63 °FOvercast.5 mph80%29.97 "Hg7 mi
3:53 AM63 °FOvercast.6 mph81%29.97 "Hg10 mi
3:34 AM63 °FOvercast.5 mph81%29.97 "Hg10 mi
3:14 AM63 °FPassing clouds.6 mph80%29.97 "Hg10 mi
2:53 AM62 °FPassing clouds.5 mph81%29.97 "Hg10 mi
2:34 AM62 °FPassing clouds.5 mph81%29.96 "Hg10 mi
2:14 AM63 °FClear.5 mph80%29.97 "Hg10 mi
1:53 AM64 °FClear.5 mph78%29.97 "Hg10 mi
1:34 AM64 °FClear.5 mph77%29.97 "Hg10 mi
1:14 AM64 °FClear.5 mph78%29.97 "Hg10 mi
12:53 AM64 °FClear.5 mph77%29.98 "Hg10 mi
12:34 AM64 °FClear.5 mph75%29.98 "Hg10 mi
12:14 AM65 °FClear.6 mph75%29.97 "Hg10 mi
11:53 PM
Fri, Aug 26
65 °FClear.6 mph74%29.98 "Hg10 mi
11:34 PM65 °FClear.5 mph73%29.98 "Hg10 mi
11:14 PM66 °FClear.7 mph70%29.98 "Hg10 mi
10:53 PM67 °FClear.6 mph68%29.98 "Hg10 mi
10:34 PM67 °FClear.6 mph68%29.97 "Hg10 mi
10:14 PM68 °FClear.6 mph66%29.98 "Hg10 mi
9:53 PM68 °FClear.9 mph64%29.97 "Hg10 mi
9:34 PM69 °FClear.8 mph62%29.97 "Hg10 mi
9:14 PM70 °FClear.9 mph60%29.96 "Hg10 mi
8:46 PM72 °FClear.9 mph57%29.95 "Hg7 mi
7:55 PM73 °FSunny.13 mph50%29.93 "Hg7 mi
Weather by CustomWeather, © 2016

See weather overviewHow to use our weather pages